Henderson, KY

3:56 AM CDT on September 15, 2019 (GMT -0500)
Henderson City-County

Weather History for KEHR - May, 2019

Change the Weather History Date:

Thursday, May 2, 2019

  Actual Average Record
Temperature  
Mean Temperature 64 °F -  
Max Temperature 71 °F 73 °F 91 °F (1952)
Min Temperature 57 °F 51 °F 34 °F (1961)
Degree Days  
Heating Degree Days 1    
Growing Degree Days 14 (Base 50)    
Moisture  
Dew Point 61 °F    
Average Humidity 94    
Maximum Humidity 100    
Minimum Humidity 75    
Precipitation  
Precipitation 0.92 in - - ()
Sea Level Pressure  
Sea Level Pressure 30.09 in    
Wind  
Wind Speed 3 mph (SSE)    
Max Wind Speed 17 mph    
Max Gust Speed 25 mph    
Visibility 6 miles    
Events Fog , Rain , Thunderstorm    
Averages and records for this station are not official NWS values.
T = Trace of Precipitation, MM = Missing Value Source: NWS Daily Summary

Daily Weather History Graph

Daily Weather History Graph

Search for Another Location

Airport or City:

Astronomy

May. 02, 2019 Rise Set
Actual Time 5:54 AM CDT 7:41 PM CDT
Civil Twilight 5:25 AM CDT 8:10 PM CDT
Nautical Twilight 4:51 AM CDT 8:44 PM CDT
Astronomical Twilight 4:14 AM CDT 9:21 PM CDT
Moon 5:02 AM CDT (5/2) 5:32 PM CDT (5/2)
Length of Visible Light 14h 44m
Length of Day
13h 47m
Waning Crescent, 5% of the Moon is Illuminated
May 2
Waning Crescent
May 4
New
May 11
First Quarter
May 18
Full
May 26
Last Quarter

Hourly Weather History & Observations

Time (CDT) Temp. Dew Point Humidity Pressure Visibility Wind Dir Wind Speed Gust Speed Precip Events Conditions
12:27 AM 59.0 °F 59.0 °F 100% 30.10 in 0.5 mi South 3.5 mph - N/A Fog Fog
12:33 AM 59.0 °F 57.2 °F 94% 30.10 in 0.2 mi South 3.5 mph - N/A Fog Fog
12:41 AM 59.0 °F 59.0 °F 100% 30.10 in 0.5 mi Calm Calm - N/A Fog Fog
12:51 AM 59.0 °F 59.0 °F 100% 30.09 in 0.2 mi Calm Calm - N/A Fog Fog
12:56 AM 59.0 °F 59.0 °F 100% 30.12 in 0.5 mi Calm Calm - N/A Fog Fog
12:59 AM 59.0 °F 59.0 °F 100% 30.09 in 1.0 mi Calm Calm - N/A   Clear
1:12 AM 59.0 °F 59.0 °F 100% 30.09 in 0.8 mi Calm Calm - N/A   Clear
1:17 AM 59.0 °F 59.0 °F 100% 30.09 in 1.2 mi Calm Calm - N/A   Clear
1:20 AM 59.0 °F 59.0 °F 100% 30.09 in 0.8 mi Calm Calm - N/A   Clear
1:26 AM 59.0 °F 59.0 °F 100% 30.09 in 0.2 mi Calm Calm - N/A Fog Fog
1:40 AM 57.2 °F 57.2 °F 100% 30.09 in 0.5 mi Calm Calm - N/A Fog Fog
1:56 AM 59.0 °F 57.9 °F 96% 30.11 in 0.5 mi Calm Calm - N/A Fog Fog
2:11 AM 59.0 °F 57.2 °F 94% 30.08 in 1.0 mi SSE 3.5 mph - N/A   Clear
2:15 AM 59.0 °F 59.0 °F 100% 30.08 in 2.0 mi Calm Calm - N/A   Clear
2:24 AM 60.8 °F 60.8 °F 100% 30.08 in 9.0 mi Calm Calm - N/A   Clear
3:56 AM 62.1 °F 61.0 °F 96% 30.09 in 5.0 mi ESE 3.5 mph - N/A   Clear
4:56 AM 61.0 °F 61.0 °F 100% 30.07 in 3.0 mi East 3.5 mph - N/A   Clear
5:04 AM 60.8 °F 60.8 °F 100% 30.04 in 1.8 mi East 3.5 mph - N/A   Clear
5:16 AM 60.8 °F 60.8 °F 100% 30.05 in 1.2 mi Calm Calm - N/A   Clear
5:20 AM 60.8 °F 60.8 °F 100% 30.05 in 3.0 mi ESE 3.5 mph - N/A   Clear
5:56 AM 62.1 °F 62.1 °F 100% 30.10 in 6.0 mi SSE 3.5 mph - N/A   Clear
6:56 AM 62.1 °F 62.1 °F 100% 30.09 in 10.0 mi ESE 3.5 mph - N/A   Partly Cloudy
7:45 AM 62.6 °F 62.6 °F 100% 30.11 in 10.0 mi SSW 9.2 mph - N/A Rain , Thunderstorm Light Rain
7:56 AM 63.0 °F 62.1 °F 97% 30.16 in 10.0 mi West 16.1 mph 24.2 mph N/A Rain , Thunderstorm Thunderstorms and Rain
8:06 AM 62.6 °F 62.6 °F 100% 30.12 in 5.0 mi West 16.1 mph 20.7 mph 0.03 in Rain , Thunderstorm Light Rain
8:13 AM 62.6 °F 60.8 °F 94% 30.13 in 3.0 mi West 17.3 mph 25.3 mph 0.24 in Rain , Thunderstorm Heavy Thunderstorms and Rain
8:15 AM 62.6 °F 60.8 °F 94% 30.13 in 2.5 mi West 17.3 mph 25.3 mph 0.30 in Rain Heavy Rain
8:21 AM 62.6 °F 60.8 °F 94% 30.15 in 3.0 mi WSW 11.5 mph 25.3 mph 0.41 in Rain , Thunderstorm Heavy Thunderstorms and Rain
8:31 AM 62.6 °F 60.8 °F 94% 30.14 in 9.0 mi West 11.5 mph - 0.42 in Rain , Thunderstorm Light Thunderstorms and Rain
8:56 AM 62.1 °F 61.0 °F 96% 30.17 in 7.0 mi Calm Calm - 0.49 in Rain , Thunderstorm Rain
9:21 AM 62.6 °F 62.6 °F 100% 30.14 in 10.0 mi Calm Calm - 0.01 in Rain Light Rain
9:56 AM 63.0 °F 62.1 °F 97% 30.17 in 10.0 mi SE 3.5 mph - 0.04 in Rain Light Rain
10:56 AM 66.0 °F 62.1 °F 87% 30.15 in 10.0 mi Calm Calm - 0.00 in   Clear
11:56 AM 66.9 °F 62.1 °F 84% 30.16 in 10.0 mi WSW 4.6 mph - N/A   Overcast
12:56 PM 68.0 °F 62.1 °F 81% 30.14 in 10.0 mi SSW 5.8 mph - 0.00 in   Partly Cloudy
1:56 PM 68.0 °F 63.0 °F 84% 30.13 in 10.0 mi WSW 3.5 mph - N/A   Mostly Cloudy
2:56 PM 70.0 °F 63.0 °F 78% 30.10 in 10.0 mi ESE 4.6 mph - N/A   Partly Cloudy
3:56 PM 70.0 °F 63.0 °F 78% 30.08 in 10.0 mi Calm Calm - N/A   Partly Cloudy
4:56 PM 71.1 °F 63.0 °F 75% 30.07 in 10.0 mi NNW 5.8 mph - N/A   Mostly Cloudy
5:17 PM 69.8 °F 64.4 °F 83% 30.05 in 10.0 mi North 3.5 mph - N/A   Scattered Clouds
5:56 PM 70.0 °F 64.0 °F 81% 30.07 in 10.0 mi ENE 4.6 mph - N/A   Clear
6:56 PM 68.0 °F 64.0 °F 87% 30.05 in 10.0 mi ENE 5.8 mph - N/A   Clear
7:56 PM 66.9 °F 63.0 °F 87% 30.04 in 10.0 mi East 5.8 mph - N/A   Clear
8:56 PM 68.0 °F 62.1 °F 81% 30.05 in 10.0 mi Variable 3.5 mph - N/A   Scattered Clouds
9:56 PM 66.0 °F 64.0 °F 93% 30.05 in 10.0 mi North 5.8 mph - 0.12 in Rain Light Rain
10:36 PM 66.2 °F 62.6 °F 88% 30.03 in 6.0 mi Variable 3.5 mph - 0.10 in Rain , Thunderstorm Heavy Rain
10:56 PM 64.9 °F 63.0 °F 93% 30.05 in 6.0 mi Variable 4.6 mph - 0.18 in Rain , Thunderstorm Thunderstorms and Rain
11:21 PM 64.4 °F 62.6 °F 94% 30.00 in 10.0 mi NE 9.2 mph - 0.06 in Rain , Thunderstorm Light Rain
11:46 PM 64.4 °F 62.6 °F 94% 29.98 in 10.0 mi North 6.9 mph - 0.08 in Rain Light Rain
11:56 PM 64.9 °F 62.1 °F 90% 30.02 in 10.0 mi Variable 5.8 mph - 0.09 in Rain , Thunderstorm Light Rain